Location: Kapuskasing
(49.3803°N, 82.4001°W)
Time: 11:17:13
(UTC-04:00)

RS-44 - Pass Details

Date: 18 March 2026
Orbit: 1175 x 1510 km, 82.5° (Epoch: 11 April)

Event Time Altitude Azimuth Distance (km) Brightness Sun altitude
Rises 04:04:13 0° 348° (NNW) 4,415 ? -32.3°
Reaches altitude 10° 04:06:58 10° 346° (NNW) 3,480 ? -32.0°
Maximum altitude 04:15:16 70° 266° (W) 1,540 ? -31.0°
Enters shadow 04:16:01 67° 235° (SW) 1,571 ? -30.9°
